�N����,����,�~����,�C��,���x,�C��,����,���ϕ���,�ő�u�ԕ���,�ő厞����,���˗�,�I�_���x,�n�����x,�ő啗���N��,DTYPE
"17/03/18","00:10",0.0,3.0,87.9,1017.5,322.1,3.5,5.5,336.0,0.00,1.2,6.9,"00:03:44",1
"17/03/18","00:20",0.0,3.2,86.9,1017.8,334.5,3.9,5.7,329.7,0.00,1.3,6.7,"00:13:36",1
"17/03/18","00:30",0.0,3.1,86.1,1018.2,320.2,3.5,4.9,330.1,0.00,1.0,6.7,"00:29:52",1
"17/03/18","00:40",0.0,2.9,86.1,1018.2,323.0,3.5,5.4,323.4,0.00,0.8,6.5,"00:39:20",1
"17/03/18","00:50",0.0,2.8,86.8,1017.8,312.4,3.7,5.1,328.1,0.00,0.9,6.5,"00:46:00",1
"17/03/18","01:00",0.0,2.6,86.3,1017.5,319.7,1.5,3.5,322.2,0.00,0.6,6.6,"00:50:56",1
"17/03/18","01:10",0.0,2.1,86.8,1017.5,302.9,1.6,2.8,321.0,0.00,0.2,6.6,"01:05:44",1
"17/03/18","01:20",0.0,1.5,88.3,1017.5,302.8,2.2,3.4,320.1,0.00,-0.2,6.5,"01:10:50",1
"17/03/18","01:30",0.0,1.3,90.0,1017.8,290.1,2.0,2.6,318.4,0.00,-0.1,6.3,"01:21:14",1
"17/03/18","01:40",0.0,1.3,90.9,1017.3,300.7,2.3,3.4,321.3,0.00,0.0,6.5,"01:30:36",1
"17/03/18","01:50",0.0,1.2,91.4,1017.5,308.4,2.1,3.3,322.3,0.00,0.0,6.3,"01:48:16",1
"17/03/18","02:00",0.0,1.2,92.0,1017.5,290.7,1.6,2.8,314.9,0.00,0.1,6.4,"01:51:14",1
"17/03/18","02:10",0.0,1.3,92.5,1017.3,306.7,1.7,3.5,324.8,0.00,0.3,6.0,"02:05:40",1
"17/03/18","02:20",0.0,0.9,92.1,1017.1,315.7,2.5,3.3,314.9,0.00,-0.2,6.3,"02:12:08",1
"17/03/18","02:30",0.0,0.6,93.0,1016.6,281.1,1.7,1.9,290.0,0.00,-0.4,6.1,"02:22:32",1
"17/03/18","02:40",0.0,0.9,93.8,1016.6,286.3,1.7,2.4,318.4,0.00,0.1,5.7,"02:38:40",1
"17/03/18","02:50",0.0,0.8,93.5,1016.8,314.3,2.0,2.8,324.9,0.00,-0.1,6.2,"02:49:54",1
"17/03/18","03:00",0.0,0.6,93.8,1016.6,325.2,2.6,3.3,324.1,0.00,-0.2,6.1,"02:57:44",1
"17/03/18","03:10",0.0,0.7,94.4,1016.6,318.8,1.3,2.6,313.4,0.00,-0.1,6.0,"03:09:04",1
"17/03/18","03:20",0.0,0.7,94.6,1016.8,313.7,2.7,3.2,309.4,0.00,0.0,6.1,"03:13:20",1
"17/03/18","03:30",0.0,0.6,94.7,1016.6,311.8,1.2,2.4,319.0,0.00,-0.1,6.1,"03:22:24",1
"17/03/18","03:40",0.0,0.6,95.0,1016.8,333.9,1.5,2.8,324.6,0.00,-0.1,6.0,"03:38:32",1
"17/03/18","03:50",0.0,0.4,95.1,1016.6,277.7,1.2,2.1,313.5,0.00,-0.3,6.0,"03:40:08",1
"17/03/18","04:00",0.0,0.4,95.6,1016.8,292.7,1.5,2.5,321.6,0.00,-0.2,5.9,"03:54:16",1
"17/03/18","04:10",0.0,0.5,95.7,1016.6,316.9,1.0,2.0,303.6,0.00,-0.1,5.9,"04:09:12",1
"17/03/18","04:20",0.0,0.4,95.7,1016.8,289.8,1.2,2.2,297.7,0.00,-0.2,5.8,"04:12:08",1
"17/03/18","04:30",0.0,0.1,95.7,1016.8,277.9,0.8,1.6,275.5,0.00,-0.5,5.7,"04:27:12",1
"17/03/18","04:40",0.0,0.0,96.2,1016.6,301.0,1.2,1.9,319.3,0.00,-0.5,5.6,"04:33:30",1
"17/03/18","04:50",0.0,0.0,96.3,1016.8,293.2,1.5,2.7,319.8,0.00,-0.5,5.6,"04:44:18",1
"17/03/18","05:00",0.0,-0.1,96.7,1016.8,282.2,0.8,1.9,317.6,0.00,-0.5,5.5,"04:58:56",1
"17/03/18","05:10",0.0,-0.1,96.9,1016.8,293.7,1.7,2.4,310.2,0.00,-0.5,5.5,"05:03:34",1
"17/03/18","05:20",0.0,0.0,97.1,1017.1,301.7,1.7,2.2,320.2,0.00,-0.4,5.5,"05:15:30",1
"17/03/18","05:30",0.0,0.0,97.3,1017.1,287.6,1.6,2.5,316.8,0.00,-0.3,5.3,"05:29:32",1
"17/03/18","05:40",0.0,0.1,97.6,1017.1,280.3,1.8,2.6,311.2,0.00,-0.2,5.4,"05:30:08",1
"17/03/18","05:50",0.0,0.3,97.8,1017.5,302.0,1.8,2.8,320.9,0.00,0.0,5.3,"05:49:32",1
"17/03/18","06:00",0.0,0.3,97.5,1017.5,304.2,1.2,2.2,331.9,0.00,0.0,5.3,"05:59:42",1
"17/03/18","06:10",0.0,0.2,97.4,1017.8,319.4,2.1,2.9,314.6,0.00,-0.1,5.4,"06:01:22",1
"17/03/18","06:20",0.0,0.2,97.7,1017.5,304.5,1.3,2.2,315.7,0.00,-0.1,5.3,"06:10:08",1
"17/03/18","06:30",0.0,0.1,97.5,1017.5,264.8,1.1,1.7,290.7,0.00,-0.2,5.3,"06:20:24",1
"17/03/18","06:40",0.0,0.3,97.9,1018.0,268.4,1.6,2.1,252.6,0.00,0.0,5.5,"06:36:24",1
"17/03/18","06:50",0.0,0.6,97.8,1018.0,294.2,1.3,1.9,303.4,0.00,0.3,5.3,"06:44:48",1
"17/03/18","07:00",0.0,0.8,97.8,1017.8,288.3,1.8,2.2,309.3,0.01,0.5,5.5,"06:59:08",1
"17/03/18","07:10",0.0,1.3,97.7,1017.8,301.3,1.8,3.2,324.6,0.02,1.0,5.3,"07:00:50",1
"17/03/18","07:20",0.0,1.8,96.1,1018.0,299.7,1.3,2.9,314.8,0.03,1.3,5.2,"07:12:24",1
"17/03/18","07:30",0.0,2.7,93.1,1018.5,268.4,1.0,1.4,299.9,0.04,1.7,5.2,"07:29:44",1
"17/03/18","07:40",0.0,3.5,89.0,1018.5,302.0,1.3,1.8,306.6,0.05,1.9,5.5,"07:36:40",1
"17/03/18","07:50",0.0,3.5,89.2,1018.5,127.1,0.6,1.0,136.0,0.07,1.9,5.6,"07:48:00",1
"17/03/18","08:00",0.0,4.6,86.6,1019.2,248.2,0.6,1.1,261.3,0.09,2.6,5.5,"07:57:12",1
"17/03/18","08:10",0.0,5.4,83.1,1019.7,297.3,1.0,2.7,321.4,0.12,2.8,5.8,"08:08:56",1
"17/03/18","08:20",0.0,5.4,82.1,1020.1,355.1,0.7,1.9,318.1,0.16,2.6,5.9,"08:10:08",1
"17/03/18","08:30",0.0,5.8,80.3,1020.4,341.5,0.5,1.3,300.5,0.19,2.7,5.9,"08:25:00",1
"17/03/18","08:40",0.0,6.6,77.9,1020.8,277.0,0.7,1.6,315.9,0.21,3.1,6.1,"08:32:22",1
"17/03/18","08:50",0.0,7.1,75.0,1021.3,311.5,0.7,1.4,318.6,0.23,3.0,6.2,"08:48:42",1
"17/03/18","09:00",0.0,6.9,76.2,1021.3,232.0,1.0,1.7,317.8,0.22,3.0,6.5,"08:52:16",1
"17/03/18","09:10",0.0,6.7,75.4,1021.1,168.1,1.0,2.6,115.8,0.26,2.7,6.5,"09:06:08",1
"17/03/18","09:20",0.0,7.6,74.2,1020.8,145.8,1.2,2.7,130.3,0.32,3.3,6.7,"09:10:32",1
"17/03/18","09:30",0.0,7.5,71.5,1021.1,135.1,1.2,2.8,120.0,0.32,2.7,6.8,"09:22:24",1
"17/03/18","09:40",0.0,8.0,70.7,1020.8,147.5,1.5,2.9,111.6,0.37,3.0,7.2,"09:33:04",1
"17/03/18","09:50",0.0,8.4,70.2,1020.8,112.7,1.1,2.8,130.2,0.35,3.3,7.3,"09:43:04",1
"17/03/18","10:00",0.0,8.6,69.8,1020.6,157.0,0.8,2.7,119.1,0.31,3.4,7.7,"09:50:56",1
"17/03/18","10:10",0.0,9.4,67.5,1020.6,214.6,0.7,1.9,197.2,0.37,3.7,7.8,"10:04:48",1
"17/03/18","10:20",0.0,9.5,64.4,1020.1,317.6,1.0,2.2,356.0,0.40,3.2,7.8,"10:11:36",1
"17/03/18","10:30",0.0,9.9,62.5,1020.4,236.9,0.8,2.0,203.9,0.41,3.1,8.2,"10:20:32",1
"17/03/18","10:40",0.0,10.6,63.4,1019.9,343.4,1.1,2.0,341.0,0.46,4.0,8.4,"10:32:16",1
"17/03/18","10:50",0.0,10.9,62.9,1019.9,111.3,1.2,3.1,119.7,0.47,4.2,8.6,"10:42:48",1
"17/03/18","11:00",0.0,11.0,59.8,1019.4,238.1,1.1,1.9,210.5,0.41,3.5,8.7,"10:54:00",1
"17/03/18","11:10",0.0,11.6,59.2,1019.4,168.5,1.0,2.5,184.6,0.42,4.0,9.1,"11:05:28",1
"17/03/18","11:20",0.0,11.9,56.4,1019.2,222.0,1.5,3.5,239.5,0.40,3.5,9.3,"11:12:16",1
"17/03/18","11:30",0.0,12.6,54.7,1018.5,187.1,1.2,2.7,134.0,0.49,3.8,9.6,"11:29:52",1
"17/03/18","11:40",0.0,13.0,52.0,1018.5,191.7,1.8,4.0,149.9,0.50,3.4,9.7,"11:36:00",1
"17/03/18","11:50",0.0,13.5,49.6,1018.2,207.2,1.6,3.7,231.5,0.56,3.2,10.1,"11:43:44",1
"17/03/18","12:00",0.0,13.7,47.7,1017.8,178.4,1.5,2.8,188.7,0.57,2.8,10.3,"11:52:00",1
"17/03/18","12:10",0.0,13.9,45.8,1017.8,202.1,2.1,3.7,231.3,0.57,2.5,10.4,"12:04:56",1
"17/03/18","12:20",0.0,14.4,42.5,1017.3,207.6,1.2,3.2,187.9,0.58,1.9,11.0,"12:17:52",1
"17/03/18","12:30",0.0,14.9,38.7,1017.3,284.9,2.3,7.1,322.5,0.60,1.0,11.0,"12:20:56",1
"17/03/18","12:40",0.0,14.3,38.1,1017.1,263.6,2.6,4.7,230.3,0.58,0.3,11.0,"12:36:24",1
"17/03/18","12:50",0.0,14.2,37.5,1017.1,267.4,2.3,4.1,263.0,0.50,0.0,11.2,"12:48:24",1
"17/03/18","13:00",0.0,13.9,36.3,1017.3,269.6,2.2,4.2,270.1,0.37,-0.8,11.5,"12:58:40",1
"17/03/18","13:10",0.0,13.9,36.4,1016.6,247.5,2.6,5.8,226.7,0.34,-0.7,11.5,"13:08:48",1
"17/03/18","13:20",0.0,13.7,35.0,1016.8,272.3,2.6,5.7,249.1,0.23,-1.4,11.3,"13:16:16",1
"17/03/18","13:30",0.0,13.8,35.6,1016.8,270.6,2.3,4.1,245.7,0.22,-1.1,11.4,"13:25:36",1
"17/03/18","13:40",0.0,14.0,33.2,1016.4,269.6,2.2,4.4,292.3,0.23,-1.9,11.5,"13:33:52",1
"17/03/18","13:50",0.0,13.6,34.0,1016.8,283.1,2.2,4.1,315.6,0.22,-1.9,11.5,"13:43:12",1
"17/03/18","14:00",0.0,13.7,32.5,1016.1,277.9,2.3,5.2,314.0,0.20,-2.4,11.6,"13:56:40",1
"17/03/18","14:10",0.0,13.7,33.3,1016.6,292.5,1.8,3.2,322.4,0.18,-2.1,11.5,"14:06:32",1
"17/03/18","14:20",0.0,14.0,32.5,1016.1,294.7,2.0,3.6,334.7,0.19,-2.2,11.4,"14:19:28",1
"17/03/18","14:30",0.0,13.7,35.0,1016.1,322.6,2.1,3.6,342.4,0.17,-1.4,11.3,"14:22:16",1
"17/03/18","14:40",0.0,13.6,35.0,1015.9,287.9,2.1,4.5,344.9,0.15,-1.5,11.0,"14:33:52",1
"17/03/18","14:50",0.0,13.6,36.1,1015.9,269.5,1.6,2.8,234.3,0.14,-1.1,11.1,"14:44:48",1
"17/03/18","15:00",0.0,13.7,35.7,1016.1,274.2,1.6,2.5,333.8,0.12,-1.2,11.2,"14:50:56",1
"17/03/18","15:10",0.0,13.7,36.6,1015.9,301.2,1.8,3.2,340.0,0.10,-0.8,11.1,"15:04:48",1
"17/03/18","15:20",0.0,13.6,36.5,1015.9,299.1,1.7,3.2,343.7,0.09,-1.0,11.2,"15:11:28",1
"17/03/18","15:30",0.0,13.6,35.4,1015.9,330.4,1.8,3.5,341.3,0.10,-1.4,11.1,"15:23:44",1
"17/03/18","15:40",0.0,13.7,36.4,1015.9,345.4,1.6,2.8,336.6,0.09,-0.9,11.0,"15:31:36",1
"17/03/18","15:50",0.0,13.7,37.4,1016.1,331.5,1.7,3.2,336.5,0.10,-0.5,11.1,"15:41:20",1
"17/03/18","16:00",0.0,13.5,35.1,1015.9,325.1,2.3,3.6,344.1,0.11,-1.6,11.0,"15:52:32",1
"17/03/18","16:10",0.0,13.7,37.4,1015.9,330.8,2.0,3.1,323.9,0.11,-0.5,10.9,"16:08:00",1
"17/03/18","16:20",0.0,13.5,36.9,1016.1,336.0,2.0,4.0,344.9,0.08,-0.9,10.8,"16:14:48",1
"17/03/18","16:30",0.0,13.4,37.8,1016.4,325.0,1.8,3.3,335.7,0.06,-0.7,10.8,"16:25:44",1
"17/03/18","16:40",0.0,13.3,39.2,1015.9,332.1,2.0,3.9,343.3,0.05,-0.2,10.7,"16:31:28",1
"17/03/18","16:50",0.0,13.2,37.2,1016.1,294.5,1.7,2.7,329.5,0.05,-1.0,10.7,"16:46:16",1
"17/03/18","17:00",0.0,13.1,35.9,1016.6,319.9,2.2,3.9,341.2,0.05,-1.6,10.9,"16:57:36",1
"17/03/18","17:10",0.0,13.0,37.1,1016.6,294.4,1.7,4.0,306.5,0.04,-1.3,10.7,"17:03:04",1
"17/03/18","17:20",0.0,12.9,38.6,1016.6,303.5,2.0,2.9,320.7,0.03,-0.8,10.5,"17:19:28",1
"17/03/18","17:30",0.0,12.7,35.5,1016.4,325.3,2.7,4.8,338.3,0.02,-2.1,10.7,"17:24:24",1
"17/03/18","17:40",0.0,12.5,35.0,1016.6,329.5,2.8,4.3,346.2,0.01,-2.5,10.4,"17:38:16",1
"17/03/18","17:50",0.0,12.4,36.1,1016.6,320.1,2.6,3.5,337.3,0.01,-2.2,10.5,"17:46:00",1
"17/03/18","18:00",0.0,12.1,39.5,1016.6,309.5,2.0,3.2,329.9,0.01,-1.2,10.3,"17:57:36",1
"17/03/18","18:10",0.0,11.7,45.1,1016.6,295.9,1.7,2.2,312.4,0.00,0.2,10.3,"18:07:12",1
"17/03/18","18:20",0.0,11.1,48.6,1016.6,318.2,2.1,3.1,339.0,0.00,0.7,10.1,"18:14:56",1
"17/03/18","18:30",0.0,10.7,48.1,1016.4,318.9,2.1,2.6,325.9,0.00,0.2,10.4,"18:29:30",1
"17/03/18","18:40",0.0,10.3,51.5,1016.4,328.6,2.3,3.2,339.8,0.00,0.8,10.0,"18:33:52",1
"17/03/18","18:50",0.0,9.9,54.0,1016.8,307.9,2.3,3.2,326.1,0.00,1.1,10.0,"18:42:56",1
"17/03/18","19:00",0.0,9.5,55.0,1016.4,301.3,2.1,2.8,321.3,0.00,1.0,9.8,"18:50:32",1
"17/03/18","19:10",0.0,9.3,55.8,1016.4,305.7,2.0,2.8,316.4,0.00,1.0,9.8,"19:09:20",1
"17/03/18","19:20",0.0,9.0,58.7,1016.6,329.7,1.1,2.4,324.6,0.00,1.4,9.7,"19:11:12",1
"17/03/18","19:30",0.0,8.6,60.0,1016.4,286.2,1.6,1.9,300.1,0.00,1.3,9.7,"19:29:12",1
"17/03/18","19:40",0.0,8.4,60.5,1016.6,304.5,2.0,2.8,325.3,0.00,1.2,9.7,"19:33:12",1
"17/03/18","19:50",0.0,8.2,62.5,1016.1,325.2,2.0,3.1,347.2,0.00,1.5,9.6,"19:43:04",1
"17/03/18","20:00",0.0,7.8,64.3,1016.8,305.1,2.2,3.2,324.0,0.00,1.5,9.6,"19:53:04",1
"17/03/18","20:10",0.0,7.5,65.4,1016.6,298.0,2.2,2.9,315.5,0.00,1.5,9.4,"20:09:52",1
"17/03/18","20:20",0.0,7.1,66.4,1016.6,296.2,2.2,2.7,303.7,0.00,1.3,9.2,"20:15:12",1
"17/03/18","20:30",0.0,6.9,67.6,1016.4,300.1,2.3,2.8,305.0,0.00,1.4,9.1,"20:28:00",1
"17/03/18","20:40",0.0,6.8,68.6,1016.4,309.0,2.3,2.9,307.0,0.00,1.5,8.9,"20:32:48",1
"17/03/18","20:50",0.0,6.6,69.2,1016.4,308.4,2.2,2.9,317.7,0.00,1.4,8.9,"20:40:48",1
"17/03/18","21:00",0.0,6.2,70.6,1016.4,302.3,1.8,2.4,316.6,0.00,1.3,8.7,"20:52:16",1
"17/03/18","21:10",0.0,6.1,71.9,1016.6,289.2,2.1,2.7,318.4,0.00,1.5,8.8,"21:07:50",1
"17/03/18","21:20",0.0,5.8,72.2,1016.8,313.0,1.8,2.7,321.0,0.00,1.2,8.9,"21:15:20",1
"17/03/18","21:30",0.0,5.5,73.5,1016.6,295.9,1.8,2.8,310.2,0.00,1.2,8.7,"21:20:02",1
"17/03/18","21:40",0.0,5.8,74.7,1016.4,309.7,3.2,4.5,321.1,0.00,1.7,8.6,"21:37:12",1
"17/03/18","21:50",0.0,6.3,72.1,1016.4,316.4,4.0,4.9,323.1,0.00,1.7,8.6,"21:47:20",1
"17/03/18","22:00",0.0,6.0,71.8,1016.6,290.7,2.1,3.4,332.1,0.00,1.3,8.3,"21:51:44",1
"17/03/18","22:10",0.0,5.4,73.4,1016.6,335.5,0.8,2.0,299.2,0.00,1.1,8.2,"22:00:40",1
"17/03/18","22:20",0.0,4.8,74.8,1016.6,295.8,1.5,1.9,303.1,0.00,0.8,8.3,"22:11:36",1
"17/03/18","22:30",0.0,4.3,76.5,1016.4,279.7,1.0,1.2,296.0,0.00,0.6,8.3,"22:24:16",1
"17/03/18","22:40",0.0,4.0,78.6,1016.6,315.5,1.5,2.5,325.6,0.00,0.7,8.1,"22:38:10",1
"17/03/18","22:50",0.0,3.6,80.3,1016.1,315.7,2.0,2.6,323.3,0.00,0.6,8.1,"22:40:16",1
"17/03/18","23:00",0.0,3.4,81.4,1016.1,312.0,1.6,2.4,319.3,0.00,0.6,7.8,"22:50:08",1
"17/03/18","23:10",0.0,3.3,82.8,1016.1,293.7,1.3,2.7,305.0,0.00,0.7,7.8,"23:05:50",1
"17/03/18","23:20",0.0,3.3,83.5,1016.1,294.3,1.5,1.9,325.9,0.00,0.8,7.7,"23:18:54",1
"17/03/18","23:30",0.0,3.5,83.3,1016.1,321.8,1.7,2.7,314.3,0.00,1.0,7.8,"23:23:42",1
"17/03/18","23:40",0.0,3.3,82.6,1016.1,275.1,1.0,2.0,324.6,0.00,0.7,7.7,"23:33:10",1
"17/03/18","23:50",0.0,3.1,83.9,1015.6,291.9,1.3,2.9,302.1,0.00,0.7,7.5,"23:44:18",1
"17/03/18","24:00",0.0,3.3,83.3,1016.1,270.2,1.1,2.9,334.4,0.00,0.8,7.3,"23:52:58",1
